DW3560 Weather Reports


time (UTC)temp
F
wind
direction
speed
knots
gust
knots
rain 1hr
in
rain 24hr
in
rain mn
in
humidity
%
barometer
mb
20260904124002 57 235 0.9 2.6 0.00 0.14 0.01 95 1012.6
20260904123502 57 235 0.9 2.6 0.00 0.14 0.01 95 1012.6
20260904123023 57 236 0.9 1.7 0.00 0.14 0.01 95 1012.6
20260904122523 57 236 0.9 1.7 0.00 0.14 0.01 95 1012.6
20260904122002 57 236 0.9 1.7 0.00 0.14 0.01 95 1012.6
20260904121502 57 237 0.9 1.7 0.00 0.14 0.01 95 1012.6
20260904121002 56 237 0.0 1.7 0.00 0.14 0.01 95 1012.6
20260904120502 57 237 0.9 1.7 0.00 0.14 0.01 95 1012.6
20260904120003 57 237 0.9 1.7 0.00 0.14 0.01 95 1012.6
20260904115503 57 237 0.0 1.7 0.00 0.14 0.01 95 1012.6
20260904115002 57 237 0.0 0.9 0.00 0.14 0.01 95 1012.6
20260904114502 57 236 0.9 3.5 0.00 0.14 0.01 95 1012.6
20260904114002 57 236 0.9 3.5 0.00 0.14 0.01 95 1012.5
20260904113503 57 235 0.9 2.6 0.00 0.14 0.01 95 1012.5
20260904113003 57 232 0.9 3.5 0.00 0.14 0.01 95 1012.5
20260904112502 57 227 0.9 3.5 0.00 0.14 0.01 95 1012.5
20260904112002 57 218 0.9 4.3 0.00 0.14 0.01 95 1012.5
20260904111502 57 221 0.9 4.3 0.00 0.14 0.01 95 1012.5
20260904111002 57 249 0.9 2.6 0.00 0.14 0.01 95 1012.5
20260904110502 57 257 0.9 1.7 0.00 0.14 0.01 95 1012.5
20260904110024 57 257 0.0 1.7 0.00 0.14 0.01 95 1012.3
20260904105502 57 257 0.0 2.6 0.00 0.14 0.01 95 1012.3
20260904105002 57 255 0.9 3.5 0.00 0.14 0.01 95 1012.3
20260904104502 57 254 0.9 4.3 0.00 0.14 0.01 95 1012.3
20260904104002 57 256 0.9 4.3 0.00 0.14 0.01 95 1012.3
20260904103502 57 247 0.9 4.3 0.00 0.14 0.01 95 1012.3
20260904103002 57 249 1.7 6.1 0.00 0.14 0.01 95 1012.3
20260904102523 58 267 1.7 6.1 0.00 0.14 0.01 95 1012.3
20260904102002 58 286 0.9 3.5 0.00 0.14 0.01 95 1012.3
20260904101502 58 275 0.0 1.7 0.00 0.14 0.01 95 1012.3
20260904101002 58 276 0.9 2.6 0.00 0.14 0.01 95 1012.3
20260904100502 58 279 0.9 2.6 0.00 0.14 0.01 95 1012.3
20260904100002 58 294 0.0 2.6 0.00 0.14 0.01 95 1012.3
20260904095502 58 303 0.0 1.7 0.00 0.14 0.01 95 1012.3
20260904095023 58 323 0.9 3.5 0.00 0.14 0.01 95 1012.3
20260904094523 58 335 0.9 4.3 0.00 0.14 0.01 95 1012.3
20260904094023 58 340 0.0 4.3 0.00 0.14 0.01 95 1012.1
20260904093503 58 323 0.0 0.9 0.00 0.14 0.01 95 1012.1
20260904093023 58 323 0.0 2.6 0.00 0.14 0.01 95 1012.1
20260904092502 58 322 0.9 2.6 0.00 0.14 0.01 95 1012.1
20260904092023 58 313 0.9 4.3 0.00 0.14 0.01 95 1012.1
20260904091524 58 318 0.9 4.3 0.00 0.14 0.01 95 1012.1
20260904091002 58 303 0.9 3.5 0.00 0.14 0.01 95 1012.1
20260904090502 58 270 0.9 5.2 0.00 0.14 0.01 95 1012.1
20260904090002 58 255 1.7 6.1 0.00 0.14 0.01 95 1012.1
20260904085502 58 248 2.6 6.1 0.00 0.14 0.01 95 1012.1
20260904085023 59 252 1.7 6.1 0.00 0.14 0.01 95 1012.1
20260904084502 59 268 1.7 7.0 0.00 0.14 0.01 95 1012.1
20260904084023 59 264 1.7 7.0 0.00 0.14 0.01 94 1012.0
20260904083523 59 258 0.9 4.3 0.00 0.14 0.01 95 1012.0
20260904083002 59 251 0.9 3.5 0.01 0.14 0.01 94 1012.0
20260904082503 59 248 0.9 3.5 0.01 0.14 0.01 95 1012.0
20260904082003 59 252 0.9 3.5 0.01 0.14 0.01 95 1012.0
20260904081502 59 250 0.9 3.5 0.01 0.14 0.01 95 1012.0
20260904081003 59 256 0.9 3.5 0.01 0.14 0.01 95 1012.0
20260904080502 59 270 0.9 3.5 0.01 0.14 0.01 94 1012.0
20260904080002 59 285 0.9 2.6 0.01 0.14 0.01 94 1012.0
20260904075502 59 323 0.9 2.6 0.01 0.14 0.01 94 1012.0
20260904075003 59 355 0.0 1.7 0.01 0.14 0.01 94 1012.0
20260904074502 58 355 0.0 0.9 0.01 0.14 0.01 94 1012.0
20260904074002 58 355 0.0 0.9 0.01 0.14 0.01 94 1013.6
20260904073502 58 355 0.0 1.7 0.01 0.14 0.01 94 1013.6
20260904073002 58 355 0.0 1.7 0.00 0.13 0.00 94 1013.6
20260904072502 58 355 0.0 1.7 0.00 0.13 0.00 94 1013.6
20260904072002 58 355 0.0 1.7 0.01 0.13 0.00 94 1013.6
20260904071502 58 355 0.0 0.9 0.02 0.13 0.00 94 1013.6
20260904071002 58 355 0.0 0.9 0.02 0.13 0.00 94 1013.6
20260904070503 58 0 0.0 0.0 0.02 0.13 0.00 94 1013.6
20260904070030 58 355 0.0 2.6 0.03 0.13 0.00 94 1013.6
20260904065502 58 355 0.9 2.6 0.04 0.13 0.13 94 1013.6
20260904065002 58 352 0.9 3.5 0.05 0.13 0.13 94 1013.6
20260904064502 58 354 1.7 5.2 0.05 0.13 0.13 94 1013.6
20260904064002 58 350 1.7 5.2 0.06 0.13 0.13 94 1013.6
20260904063523 58 340 1.7 5.2 0.06 0.13 0.13 93 1013.6
20260904063003 59 335 1.7 8.7 0.07 0.13 0.13 94 1013.6
20260904062503 59 327 1.7 8.7 0.07 0.13 0.13 94 1013.6
20260904062002 59 320 2.6 7.8 0.07 0.12 0.12 94 1013.6
20260904061502 59 322 1.7 7.0 0.06 0.11 0.11 93 1013.6
20260904061002 59 330 1.7 5.2 0.06 0.11 0.11 93 1013.6
20260904060503 60 314 1.7 7.0 0.06 0.11 0.11 93 1013.6
20260904060002 60 283 1.7 7.0 0.05 0.10 0.10 93 1013.6
20260904055524 60 283 0.9 6.1 0.04 0.09 0.09 93 1013.6
20260904055002 60 266 1.7 5.2 0.04 0.08 0.08 93 1013.6
20260904054503 60 251 1.7 7.8 0.04 0.08 0.08 93 1013.6
20260904054003 60 247 1.7 7.8 0.03 0.07 0.07 93 1013.6
20260904053524 60 256 1.7 6.1 0.03 0.07 0.07 93 1013.6
20260904053002 61 278 0.9 4.3 0.02 0.06 0.06 93 1013.6
20260904052502 61 264 1.7 3.5 0.02 0.06 0.06 93 1013.6
20260904052003 61 255 1.7 3.5 0.01 0.05 0.05 92 1013.6
20260904051503 61 256 0.9 3.5 0.01 0.05 0.05 93 1013.6
20260904051024 61 257 0.0 3.5 0.01 0.05 0.05 92 1013.6
20260904050503 61 266 0.0 3.5 0.02 0.05 0.05 92 1013.6
20260904050003 61 274 0.0 3.5 0.02 0.05 0.05 92 1013.6
20260904045524 62 300 0.0 3.5 0.03 0.05 0.05 92 1013.6
20260904045024 62 267 0.9 3.5 0.02 0.04 0.04 92 1013.6
20260904044502 62 251 0.9 3.5 0.03 0.04 0.04 92 1013.6
20260904044003 62 257 0.9 3.5 0.04 0.04 0.04 92 1013.6
20260904043503 62 269 0.9 2.6 0.04 0.04 0.04 92 1013.6
20260904043003 62 282 0.9 2.6 0.04 0.04 0.04 92 1013.6
20260904042523 62 291 0.9 2.6 0.04 0.04 0.04 91 1013.6
20260904042002 62 294 0.0 1.7 0.04 0.04 0.04 91 1013.6
20260904041524 62 295 0.0 1.7 0.04 0.04 0.04 91 1013.6
20260904041002 62 293 0.0 2.6 0.04 0.04 0.04 91 1013.6
20260904040524 62 290 0.0 2.6 0.03 0.03 0.03 91 1013.6
20260904040003 63 307 0.0 3.5 0.03 0.03 0.03 91 1013.6
20260904035502 63 293 0.9 3.5 0.02 0.02 0.02 91 1013.6
20260904035002 63 273 0.9 4.3 0.02 0.02 0.02 91 1013.6
20260904034502 63 261 0.9 4.3 0.01 0.01 0.01 90 1013.6
20260904034002 63 247 0.9 5.2 0.00 0.00 0.00 90 1013.6
20260904033503 63 230 0.9 5.2 0.00 0.00 0.00 90 1013.6
20260904033002 63 201 1.7 5.2 0.00 0.00 0.00 90 1013.6
20260904032503 63 202 1.7 7.0 0.00 0.00 0.00 90 1013.6
20260904032003 64 222 1.7 7.0 0.00 0.00 0.00 89 1013.6
20260904031503 64 242 1.7 6.1 0.00 0.00 0.00 89 1013.6
20260904031003 64 242 2.6 7.0 0.00 0.00 0.00 89 1013.6
20260904030503 64 232 2.6 7.0 0.00 0.00 0.00 88 1013.6
20260904030024 64 205 2.6 5.2 0.00 0.00 0.00 88 1013.6
20260904025503 64 209 2.6 6.1 0.00 0.00 0.00 88 1013.6
20260904025002 64 232 1.7 6.1 0.00 0.00 0.00 88 1013.6
20260904024503 64 239 0.9 3.5 0.00 0.00 0.00 88 1013.6
20260904024003 64 240 0.9 3.5 0.00 0.00 0.00 88 1013.6
20260904023503 64 244 1.7 3.5 0.00 0.00 0.00 87 1013.6
20260904023003 64 251 2.6 7.0 0.00 0.00 0.00 87 1013.6
20260904022503 64 257 1.7 7.0 0.00 0.00 0.00 87 1013.6
20260904022003 64 265 0.9 5.2 0.00 0.00 0.00 87 1013.6
20260904021503 64 272 0.9 3.5 0.00 0.00 0.00 87 1013.6
20260904021003 64 256 0.9 3.5 0.00 0.00 0.00 86 1013.6
20260904020502 64 249 1.7 6.1 0.00 0.00 0.00 86 1013.6
20260904020003 65 252 1.7 6.1 0.00 0.00 0.00 86 1013.6
20260904015503 65 259 2.6 7.0 0.00 0.00 0.00 85 1013.6
20260904015003 65 261 2.6 7.0 0.00 0.00 0.00 85 1013.6
20260904014503 65 258 1.7 7.0 0.00 0.00 0.00 84 1013.6
20260904014003 65 259 1.7 7.8 0.00 0.00 0.00 84 1013.6
20260904013524 65 266 1.7 7.8 0.00 0.00 0.00 83 1013.6
20260904013003 66 261 2.6 7.8 0.00 0.00 0.00 83 1013.6
20260904012503 66 259 2.6 7.8 0.00 0.00 0.00 82 1013.6
20260904012024 66 266 1.7 7.0 0.00 0.00 0.00 81 1013.6
20260904011503 66 262 2.6 7.8 0.00 0.00 0.00 80 1013.6
20260904011003 66 257 3.5 11.3 0.00 0.00 0.00 80 1013.6
20260904010533 67 257 2.6 11.3 0.00 0.00 0.00 79 1013.6
20260904010002 67 265 2.6 9.6 0.00 0.00 0.00 78 1013.6
20260904005524 68 280 1.7 7.0 0.00 0.00 0.00 77 1013.6
20260904005003 68 286 1.7 6.1 0.00 0.00 0.00 76 1013.6
20260904004524 68 280 1.7 7.8 0.00 0.00 0.00 76 1013.6
20260904004003 68 274 2.6 7.8 0.00 0.00 0.00 74 1013.6
20260904003503 69 276 2.6 7.8 0.00 0.00 0.00 73 1013.6
20260904003003 69 278 1.7 7.8 0.00 0.00 0.00 72 1013.6
20260904002502 70 263 1.7 7.0 0.00 0.00 0.00 71 1013.6
20260904002003 70 262 2.6 8.7 0.00 0.00 0.00 71 1013.6
20260904001502 70 275 2.6 8.7 0.00 0.00 0.00 70 1013.6
20260904001003 70 287 2.6 7.8 0.00 0.00 0.00 71 1013.6
20260904000524 70 279 2.6 7.8 0.00 0.00 0.00 71 1013.6
20260904000003 70 274 2.6 7.8 0.00 0.00 0.00 71 1013.6
20260903235503 70 279 2.6 9.6 0.00 0.00 0.00 70 1013.6
20260903235003 71 272 2.6 9.6 0.00 0.00 0.00 69 1013.6
20260903234503 71 267 2.6 7.0 0.00 0.00 0.00 69 1013.6
20260903234002 72 283 2.6 7.0 0.00 0.00 0.00 68 1013.6
20260903233503 72 298 2.6 7.8 0.00 0.00 0.00 69 1013.6
20260903233003 72 293 2.6 7.8 0.00 0.00 0.00 68 1013.6
20260903232524 72 280 2.6 7.8 0.00 0.00 0.00 69 1013.6
20260903232024 72 273 2.6 7.8 0.00 0.00 0.00 68 1013.6
20260903231503 72 313 2.6 11.3 0.00 0.00 0.00 68 1013.6
20260903231003 72 303 2.6 11.3 0.00 0.00 0.00 68 1013.6
20260903230503 72 272 1.7 7.8 0.00 0.00 0.00 68 1013.6
20260903230003 72 307 1.7 7.0 0.00 0.00 0.00 68 1013.6
20260903225503 72 289 1.7 7.8 0.00 0.00 0.00 68 1013.6
20260903225003 72 261 2.6 7.8 0.00 0.00 0.00 68 1013.6
20260903224502 72 252 3.5 7.8 0.00 0.00 0.00 67 1013.6
20260903224003 72 257 3.5 7.8 0.00 0.00 0.00 67 1013.6
20260903223502 72 261 3.5 10.4 0.00 0.00 0.00 67 1013.6
20260903223003 72 276 3.5 10.4 0.00 0.00 0.00 66 1013.6
20260903222503 73 312 2.6 9.6 0.00 0.00 0.00 66 1013.6
20260903222003 73 308 2.6 7.0 0.00 0.00 0.00 67 1013.6
20260903221503 73 291 2.6 7.0 0.00 0.00 0.00 66 1013.6
20260903221003 73 286 3.5 7.8 0.00 0.00 0.00 67 1013.6
20260903220524 73 278 2.6 7.8 0.00 0.00 0.00 67 1013.6
20260903220024 73 258 2.6 9.6 0.00 0.00 0.00 67 1013.6
20260903215503 73 257 2.6 9.6 0.00 0.00 0.00 67 1013.6
20260903215003 73 267 1.7 8.7 0.00 0.00 0.00 67 1013.6
20260903214503 73 268 1.7 6.1 0.00 0.00 0.00 67 1013.6
20260903214003 72 279 1.7 6.1 0.00 0.00 0.00 67 1014.4
20260903213503 72 310 1.7 7.0 0.00 0.00 0.00 68 1014.4
20260903213003 72 286 2.6 7.8 0.00 0.00 0.00 69 1014.4
20260903212503 71 296 2.6 9.6 0.00 0.00 0.00 70 1014.4
20260903212003 71 307 2.6 9.6 0.00 0.00 0.00 70 1014.4
20260903211503 70 289 2.6 7.0 0.00 0.00 0.00 71 1014.4
20260903211003 70 301 1.7 7.0 0.00 0.00 0.00 71 1014.4
20260903210503 70 305 1.7 4.3 0.00 0.00 0.00 71 1014.4
20260903210003 70 261 1.7 6.1 0.00 0.00 0.00 72 1014.4
20260903205503 69 258 1.7 6.1 0.00 0.00 0.00 71 1014.4
20260903205024 69 264 1.7 6.1 0.00 0.00 0.00 71 1014.4
20260903204503 69 253 3.5 7.8 0.00 0.00 0.00 71 1014.4
20260903204003 69 253 3.5 7.8 0.00 0.00 0.00 70 1014.4
20260903203503 70 256 3.5 8.7 0.00 0.00 0.00 70 1014.4
20260903203024 70 258 2.6 8.7 0.00 0.00 0.00 69 1014.4
20260903202503 70 255 2.6 8.7 0.00 0.00 0.00 69 1014.4
20260903202003 71 256 1.7 8.7 0.00 0.00 0.00 68 1014.4
20260903201503 71 251 1.7 7.0 0.00 0.00 0.00 68 1014.4
20260903201003 71 253 2.6 7.0 0.00 0.00 0.00 68 1014.4
20260903200503 71 256 2.6 9.6 0.00 0.00 0.00 68 1014.4
20260903200003 70 249 1.7 9.6 0.00 0.00 0.00 69 1014.4
20260903195503 70 258 1.7 7.0 0.00 0.00 0.00 69 1014.4
20260903195003 70 271 1.7 5.2 0.00 0.00 0.00 70 1014.4
20260903194524 69 249 2.6 7.8 0.00 0.00 0.00 71 1014.4
20260903194003 69 247 3.5 7.8 0.00 0.00 0.00 69 1015.0
20260903193503 69 247 1.7 6.1 0.00 0.00 0.00 70 1015.0
20260903193003 69 250 1.7 7.8 0.00 0.00 0.00 69 1015.0
20260903192503 69 252 2.6 9.6 0.00 0.00 0.00 69 1015.0
20260903192024 69 252 1.7 9.6 0.00 0.00 0.00 68 1015.0
20260903191503 69 266 1.7 5.2 0.00 0.00 0.00 68 1015.0
20260903191003 69 276 2.6 5.2 0.00 0.00 0.00 68 1015.0
20260903190503 69 276 1.7 5.2 0.00 0.00 0.00 69 1015.0
20260903190003 68 232 1.7 5.2 0.00 0.00 0.00 69 1015.0
20260903185503 68 208 2.6 7.8 0.00 0.00 0.00 69 1015.0
20260903185003 68 240 2.6 7.8 0.00 0.00 0.00 69 1015.0
20260903184524 68 266 2.6 7.8 0.00 0.00 0.00 69 1015.0
20260903184003 68 250 2.6 7.0 0.00 0.00 0.00 69 1015.0
20260903183503 68 244 2.6 7.0 0.00 0.00 0.00 69 1015.0
20260903183003 68 252 2.6 7.0 0.00 0.00 0.00 69 1015.0
20260903182524 68 239 2.6 9.6 0.00 0.00 0.00 69 1015.0
20260903182024 68 195 3.5 9.6 0.00 0.00 0.00 70 1015.0
20260903181503 67 187 2.6 7.8 0.00 0.00 0.00 71 1015.0
20260903181024 67 187 2.6 7.8 0.00 0.00 0.00 71 1015.0
20260903180503 67 202 2.6 7.8 0.00 0.00 0.00 72 1015.0
20260903180003 66 230 2.6 6.1 0.00 0.00 0.00 73 1015.0
20260903175503 66 208 2.6 7.0 0.00 0.00 0.00 73 1015.0
20260903175003 66 204 2.6 7.0 0.00 0.00 0.00 74 1015.0
20260903174503 65 210 2.6 7.0 0.00 0.00 0.00 75 1015.0
20260903174003 65 222 1.7 7.0 0.00 0.00 0.00 75 1015.2
20260903173503 64 200 2.6 7.0 0.00 0.00 0.00 76 1015.2
20260903173003 64 176 2.6 7.0 0.00 0.00 0.00 76 1015.2
20260903172503 64 177 2.6 6.1 0.00 0.00 0.00 77 1015.2
20260903172003 64 184 2.6 7.0 0.00 0.00 0.00 77 1015.2
20260903171524 63 181 3.5 7.0 0.00 0.00 0.00 77 1015.2
20260903171003 63 189 3.5 6.1 0.00 0.00 0.00 78 1015.2
20260903170503 63 187 2.6 6.1 0.00 0.00 0.00 79 1015.2
20260903170024 63 171 2.6 6.1 0.00 0.00 0.00 79 1015.2
20260903165503 62 172 2.6 5.2 0.00 0.00 0.00 80 1015.2
20260903165003 62 171 2.6 6.1 0.00 0.00 0.00 81 1015.2
20260903164503 62 160 2.6 7.8 0.00 0.00 0.00 81 1015.2
20260903164003 62 158 2.6 7.8 0.00 0.00 0.00 82 1015.3
20260903163503 62 191 2.6 5.2 0.00 0.00 0.00 82 1015.3
20260903163024 61 196 3.5 7.8 0.00 0.00 0.00 82 1015.3
20260903162503 61 197 3.5 7.8 0.00 0.00 0.00 82 1015.3
20260903162003 61 203 3.5 5.2 0.00 0.00 0.00 83 1015.3
20260903161503 61 191 2.6 7.0 0.00 0.00 0.00 83 1015.3
20260903161003 61 171 2.6 7.0 0.00 0.00 0.00 84 1015.3
20260903160503 61 182 3.5 6.1 0.00 0.00 0.00 84 1015.3
20260903160003 61 195 2.6 5.2 0.00 0.00 0.00 84 1015.4
20260903155503 61 180 2.6 5.2 0.00 0.00 0.00 85 1015.4
20260903155003 61 165 1.7 5.2 0.00 0.00 0.00 86 1015.4
20260903154503 61 163 2.6 6.1 0.00 0.00 0.00 86 1015.4
20260903154003 61 169 2.6 6.1 0.00 0.00 0.00 87 1015.4
20260903153524 60 174 1.7 4.3 0.00 0.00 0.00 88 1015.4
20260903153003 60 178 1.7 5.2 0.00 0.00 0.00 89 1015.4
20260903152524 60 169 1.7 5.2 0.00 0.00 0.00 90 1015.4
20260903152024 60 162 1.7 5.2 0.00 0.00 0.00 90 1015.4
20260903151503 59 166 0.9 5.2 0.00 0.00 0.00 90 1015.4
20260903151003 59 167 0.9 3.5 0.00 0.00 0.00 91 1015.4
20260903150503 59 167 0.9 4.3 0.00 0.00 0.00 91 1015.4
20260903150003 59 170 0.9 4.3 0.00 0.00 0.00 91 1015.8
20260903145524 58 178 0.9 3.5 0.00 0.00 0.00 91 1015.8
20260903145024 58 182 0.9 2.6 0.00 0.00 0.00 92 1015.8
20260903144503 58 184 0.0 1.7 0.00 0.00 0.00 92 1015.8
20260903144024 58 184 0.0 1.7 0.00 0.00 0.00 92 1015.8
20260903143503 57 184 0.0 0.9 0.00 0.00 0.00 91 1015.8
20260903143004 57 184 0.0 1.7 0.00 0.00 0.00 91 1015.8
20260903142503 57 184 0.9 2.6 0.00 0.00 0.00 91 1015.8
20260903142003 57 184 0.9 2.6 0.00 0.00 0.00 91 1015.8
20260903141503 56 184 0.9 1.7 0.00 0.00 0.00 91 1015.8
20260903141003 56 184 0.9 2.6 0.00 0.00 0.00 91 1015.8
20260903140503 56 184 0.0 2.6 0.00 0.00 0.00 91 1015.8
20260903140004 56 184 0.0 2.6 0.00 0.00 0.00 91 1015.8
20260903135503 56 185 0.9 2.6 0.00 0.00 0.00 91 1015.8
20260903135003 56 185 0.9 2.6 0.00 0.00 0.00 91 1015.8
20260903134503 56 186 0.9 2.6 0.00 0.00 0.00 91 1015.8
20260903134003 56 187 1.7 2.6 0.00 0.00 0.00 91 1015.8
20260903133503 56 188 0.9 2.6 0.00 0.00 0.00 91 1015.8
20260903133003 56 189 0.9 2.6 0.00 0.00 0.00 91 1015.8
20260903132524 56 189 0.9 2.6 0.00 0.00 0.00 91 1015.8
20260903132003 56 190 0.9 2.6 0.00 0.00 0.00 92 1015.8
20260903131503 56 190 0.9 1.7 0.00 0.00 0.00 92 1015.8
20260903131003 56 190 0.9 2.6 0.00 0.00 0.00 92 1015.8
20260903130503 56 190 0.9 2.6 0.00 0.00 0.00 92 1015.8
20260903130003 56 191 0.9 2.6 0.00 0.00 0.00 92 1015.8
20260903125503 56 192 0.9 1.7 0.00 0.00 0.00 92 1015.8
20260903125003 56 193 0.9 1.7 0.00 0.00 0.00 92 1015.8
20260903124503 56 193 0.9 2.6 0.00 0.00 0.00 92 1015.8